User: anonymous   Login
Location: Atlantic Beach
(40.5890°N, 73.7290°W)
Time: 06:29:54
(UTC+00:00)
Language:

N. Korean satellite - Orbit

View from above orbital plane
View from above orbital plane
View from above satellite
View from above satellite

Ground track
Ground track

The orbit data is extracted from the following two-line orbital elements,

1 39026U 12072A   21065.47522313  .00003188  00000-0  11120-3 0  9991
2 39026  97.2403  60.9117 0037191  33.9958 326.3655 15.29683434457280
Epoch (UTC): 06 March 2021 11:24:19
Eccentricity: 0.0037191
inclination: 97.2403°
perigee height: 451 km
apogee height: 502 km
right ascension of ascending node: 60.9117°
argument of perigee: 33.9958°
revolutions per day: 15.29683434
mean anomaly at epoch: 326.3655°
orbit number at epoch: 45728

The dashed part of the orbit path shows where the satellite is in the earth's shadow,  

DLR